Notices

What's New in latest Release from April 7th, 2021:

- Updated Glossary, including Speed of Maximum Gust, and Total Hourly Precipitation

- Updated national and regional climate services offices contacts and prices information

- Addition of station inventory lists for 1981-2010, 1971-2000, and 1961-1990 Normals.

If you haven't already, please take our survey and provide feedback about our website: https://eccc.sondage-survey.ca/f/LanguageSelection.aspx?s=442ca660-fcf1-47c0-95a9-59707d6fd709

Hourly Data Report for June 04, 2021

OTTAWA INTL A
ONTARIO
Current Station Operator: NAVCAN

45°19'00.000" N
75°40'00.000" W
114.90 m
6106001
71628
YOW

Download Data

Hourly Data (June 2021)
Hourly Data Report for June 4, 2021
TIME
LST
Temp Definition
°C
Dew Point Definition
°C
Rel Hum Definition
%
Precip. Amount Definition
mm

Wind Dir Definition
10's deg

Wind Spd Definition
km/h
Visibility Definition
km
Stn Press Definition
kPa
Hmdx Definition


Wind Chill Definition


Weather Definition


00:00 16.4 16.0 97   21 10 24.1 99.60     LegendNANA
01:00 15.9 15.6 98   23 8 24.1 99.63     Mainly Clear
02:00 15.8 15.5 98   24 6 16.1 99.64     LegendNANA
03:00 15.1 14.9 99   20 10 16.1 99.62     LegendNANA
04:00 15.1 14.9 99   20 10 9.7 99.61     Fog
05:00 15.1 15.0 99   19 14 12.9 99.63     LegendNANA
06:00 15.3 15.2 99   20 14 0.6 99.66     Fog
07:00 16.2 16.0 99   20 12 9.7 99.68     Fog
08:00 18.0 16.7 92   21 13 24.1 99.71     LegendNANA
09:00 18.8 16.0 83   21 13 24.1 99.70     LegendNANA
10:00 22.2 17.0 72   20 14 24.1 99.69 27   Mainly Clear
11:00 23.8 16.0 61   22 21 24.1 99.62 28   LegendNANA
12:00 24.5 16.3 60   21 21 24.1 99.60 29   LegendNANA
13:00 25.2 16.3 57   23 24 24.1 99.56 30   Mainly Clear
14:00 24.3 17.0 63   23 22 24.1 99.56 30   LegendNANA
15:00 25.2 17.7 63   21 16 24.1 99.50 31   LegendNANA
16:00 25.7 17.8 61   21 18 24.1 99.46 32   Mostly Cloudy
17:00 21.6 16.8 74   23 30 24.1 99.52 27   Rain Showers
18:00 20.7 14.9 69   18 12 24.1 99.50 25   LegendNANA
19:00 20.6 14.7 69   20 16 24.1 99.45     Mostly Cloudy
20:00 19.8 16.6 81   20 12 24.1 99.47     LegendNANA
21:00 19.6 16.7 83   19 13 24.1 99.49     LegendNANA
22:00 19.5 16.7 83   20 13 24.1 99.51     Mostly Cloudy
23:00 18.9 16.0 83   20 13 24.1 99.49     LegendNANA

Notes on Data Quality.

Legend

  • E = Estimated
  • M = Missing
  • NA = Not Available*
  • [empty] = Indicates an unobserved value
Date modified: